KE5ZZN Weather Reports


time (UTC)temp
C
wind
direction
speed
KPH
gust
KPH
rain 1hr
cm
rain 24hr
cm
rain mn
cm
humidity
%
barometer
mb
20220811233503 35 270 3.2 14.5 0.00 0.00 0.00 44 1010.0
20220811222002 36 270 8.0 11.3 0.00 0.00 0.00 38 1011.0
20220811215503 36 113 3.2 14.5 0.00 0.00 0.00 39 1011.0
20220811211503 37 270 6.4 14.5 0.00 0.00 0.00 38 1011.0
20220811211003 36 113 3.2 14.5 0.00 0.00 0.00 39 1011.0
20220811210503 37 315 3.2 14.5 0.00 0.00 0.00 38 1011.0
20220811205002 37 338 9.7 14.5 0.00 0.00 0.00 36 1011.0
20220811203503 36 338 8.0 14.5 0.00 0.00 0.00 39 1012.0
20220811203003 36 180 1.6 14.5 0.00 0.00 0.00 42 1012.0
20220811201003 36 180 3.2 11.3 0.00 0.00 0.00 41 1012.0
20220811195003 35 248 6.4 11.3 0.00 0.00 0.00 42 1013.0
20220811191503 33 113 3.2 14.5 0.00 0.00 0.00 48 1013.0
20220811185502 33 225 3.2 14.5 0.00 0.00 0.00 52 1013.0
20220811183502 33 338 3.2 9.7 0.00 0.00 0.00 54 1014.0
20220811174503 32 248 3.2 9.7 0.00 0.00 0.00 57 1014.0
20220811173503 32 293 8.0 9.7 0.00 0.00 0.00 58 1014.0
20220811170003 30 293 6.4 9.7 0.00 0.00 0.00 63 1015.0
20220811165503 30 203 6.4 9.7 0.00 0.00 0.00 64 1015.0
20220811163003 30 225 6.4 9.7 0.00 0.00 0.00 67 1015.0
20220811154003 28 203 6.4 8.0 0.00 0.00 0.00 71 1015.0
20220811152003 29 225 3.2 8.0 0.00 0.00 0.00 71 1015.0
20220811144503 27 203 4.8 8.0 0.00 0.00 0.00 78 1015.0
20220811142502 26 158 1.6 6.4 0.00 0.00 0.00 81 1015.0
20220811142003 26 270 1.6 6.4 0.00 0.00 0.00 82 1015.0
20220811141502 26 113 3.2 6.4 0.00 0.00 0.00 83 1015.0
20220811141003 26 203 0.0 0.0 0.00 0.00 0.00 83 1015.0
20220811140003 26 225 0.0 0.0 0.00 0.00 0.00 85 1015.0
20220811135503 25 203 0.0 0.0 0.00 0.00 0.00 85 1015.0
20220811135003 25 248 0.0 0.0 0.00 0.00 0.00 85 1015.0
20220811133002 25 338 0.0 0.0 0.00 0.00 0.00 87 1015.0
20220811131503 25 270 0.0 0.0 0.00 0.00 0.00 89 1015.0
20220811131004 24 270 0.0 0.0 0.00 0.00 0.00 90 1015.0
20220811130503 23 293 0.0 0.0 0.00 0.00 0.00 91 1015.0
20220811125003 23 203 0.0 3.2 0.00 0.00 0.00 93 1014.0
20220811124002 23 203 0.0 3.2 0.00 0.00 0.00 93 1015.0
20220811123003 23 158 0.0 3.2 0.00 0.00 0.00 94 1015.0
20220811121503 22 203 0.0 3.2 0.00 0.00 0.00 94 1015.0
20220811120503 22 248 0.0 3.2 0.00 0.00 0.00 95 1015.0
20220811115503 22 270 0.0 3.2 0.00 0.00 0.00 95 1015.0
20220811114503 22 203 0.0 3.2 0.00 0.00 0.00 95 1015.0
20220811114003 22 225 0.0 3.2 0.00 0.00 0.00 95 1015.0
20220811113502 22 180 0.0 6.4 0.00 0.00 0.00 95 1014.0
20220811112502 22 225 0.0 6.4 0.00 0.00 0.00 95 1014.0
20220811112003 22 203 0.0 6.4 0.00 0.00 0.00 95 1014.0
20220811111003 22 158 0.0 8.0 0.00 0.00 0.00 95 1014.0
20220811110503 22 248 0.0 8.0 0.00 0.00 0.00 95 1014.0
20220811110003 22 180 0.0 8.0 0.00 0.00 0.00 95 1014.0
20220811104503 22 203 0.0 8.0 0.00 0.00 0.00 95 1015.0
20220811104002 22 225 0.0 8.0 0.00 0.00 0.00 95 1015.0
20220811103503 22 248 0.0 8.0 0.00 0.00 0.00 94 1015.0
20220811102502 22 270 0.0 8.0 0.00 0.00 0.00 94 1015.0
20220811100502 22 203 4.8 8.0 0.00 0.00 0.00 93 1014.0
20220811095502 22 180 0.0 0.0 0.00 0.00 0.00 93 1014.0
20220811095003 22 180 0.0 0.0 0.00 0.00 0.00 92 1014.0
20220811092503 22 203 0.0 0.0 0.00 0.00 0.00 93 1015.0
20220811090503 22 203 0.0 0.0 0.00 0.00 0.00 94 1015.0
20220811085503 22 180 0.0 0.0 0.00 0.00 0.00 94 1015.0
20220811085003 22 135 0.0 0.0 0.00 0.00 0.00 94 1015.0
20220811084503 22 203 0.0 0.0 0.00 0.00 0.00 95 1015.0
20220811084003 22 203 0.0 0.0 0.00 0.00 0.00 95 1015.0
20220811083003 22 293 0.0 0.0 0.00 0.00 0.00 95 1015.0
20220811082502 22 113 0.0 0.0 0.00 0.00 0.00 95 1015.0
20220811081502 22 113 0.0 0.0 0.00 0.00 0.00 95 1015.0
20220811080003 22 270 0.0 0.0 0.00 0.00 0.00 95 1014.0
20220811075503 22 135 0.0 0.0 0.00 0.00 0.00 95 1014.0
20220811074002 22 158 0.0 0.0 0.00 0.00 0.00 95 1014.0
20220811073503 22 113 0.0 0.0 0.00 0.00 0.00 95 1014.0
20220811073002 22 315 0.0 0.0 0.00 0.00 0.00 95 1014.0
20220811072503 22 203 0.0 0.0 0.00 0.00 0.00 95 1014.0
20220811064502 22 135 0.0 0.0 0.00 0.00 0.00 95 1014.0
20220811063002 22 113 0.0 0.0 0.00 0.00 0.00 94 1014.0
20220811062002 22 180 0.0 0.0 0.00 0.00 0.00 94 1015.0
20220811054503 22 158 0.0 0.0 0.00 0.00 0.00 94 1015.0
20220811053502 22 113 0.0 0.0 0.00 0.00 0.00 94 1015.0
20220811051503 22 113 0.0 0.0 0.00 0.00 0.00 94 1015.0
20220811044503 22 293 0.0 3.2 0.00 0.00 0.13 94 1015.0
20220811043503 22 158 0.0 3.2 0.00 0.00 0.13 94 1015.0
20220811043003 22 158 0.0 3.2 0.00 0.00 0.13 94 1015.0
20220811041503 22 158 0.0 3.2 0.00 0.00 0.13 94 1015.0
20220811031002 22 113 0.0 1.6 0.00 0.00 0.13 93 1015.0
20220811025503 22 180 0.0 1.6 0.00 0.00 0.13 94 1015.0
20220811025003 22 135 0.0 1.6 0.00 0.00 0.13 94 1015.0
20220811024503 22 158 0.0 1.6 0.00 0.00 0.13 94 1015.0
20220811021003 23 113 0.0 0.0 0.00 0.00 0.13 94 1015.0
20220811015003 23 180 0.0 0.0 0.00 0.00 0.13 93 1015.0
20220811010003 23 158 0.0 6.4 0.00 0.00 0.13 92 1015.0
20220811005503 23 113 0.0 6.4 0.00 0.00 0.13 92 1015.0
20220811005003 23 135 0.0 6.4 0.00 0.00 0.13 92 1015.0
20220811004503 23 158 0.0 6.4 0.00 0.00 0.13 92 1015.0
20220811003503 23 158 0.0 6.4 0.00 0.00 0.13 92 1014.0
20220811002503 23 203 1.6 8.0 0.00 0.00 0.13 92 1014.0
20220811002003 23 203 6.4 11.3 0.00 0.00 0.13 92 1014.0
20220811001002 23 158 0.0 11.3 0.00 0.00 0.13 92 1014.0
20220811000503 23 225 6.4 11.3 0.00 0.00 0.13 93 1014.0